Regional Weather Roundup
Issued by NWS Midland/Odessa, TX

Home | Current Version | Previous Version | Text Only | Print | Product List | Glossary On
Versions: 1 2 3 4 5 6 7 8 9 10 11 12 13 14 15 16 17 18 19 20 21 22 23 24 25 26 27 28 29 30 31 32 33 34 35 36 37 38 39 40 41 42 43 44 45 46 47 48 49 50
000
ASUS44 KMAF 050601
RWRMAF
MIDLAND AREA WEATHER ROUNDUP
NATIONAL WEATHER SERVICE MIDLAND TX
1200 AM CST THU MAR 05 2015

...IN SOUTHWEST TEXAS AND SOUTHEAST NEW MEXICO...

CITY           SKY/WX    TMP DP  RH WIND       PRES   REMARKS
ALPINE         CLOUDY    28  27  97 NE14      30.32R WCI  17
ANDREWS        CLOUDY    24  20  85 NE20      30.37R WCI   9
ARTESIA        CLOUDY    27  21  80 NE15      30.42R WCI  15
BIG SPRING     CLOUDY    25  20  81 N23G29    30.38F WCI  10
CARLSBAD       CLOUDY    29  21  72 NE15      30.40R WCI  18
DRYDEN           N/A     34  28  79 N17G25    30.30R WCI  23
FORT STOCKTON  CLOUDY    26  26 100 N13       30.36R FOG     WCI  15
GUAD PASS      NOT AVBL
HOBBS          CLOUDY    23  23 100 N16       30.39R WCI  10
MARFA          CLOUDY    27  25  93 N15       30.24R WCI  15
MIDLAND AIRPK  CLOUDY    26  21  84 NE16G24   30.38R WCI  13
MIDLAND INTL   CLOUDY    24  20  84 NE22G28   30.36R WCI   9
ODESSA         MIX PCPN  24  19  81 NE16G29   30.39R WCI  11
PECOS          CLOUDY    29  26  88 N10       30.41R WCI  20
PRESIDIO       MOCLDY    47  32  56 N17G31    30.18R WCI  40
SEMINOLE       CLOUDY    24  19  81 NE14      30.40S WCI  12
SNYDER         CLOUDY    22  18  85 N12G21    30.40R WCI  11
WINK           CLOUDY    28  20  71 NE14      30.40R WCI  17
$$
...OTHER STATIONS IN TEXAS...

CITY           SKY/WX    TMP DP  RH WIND       PRES   REMARKS
ABILENE        CLOUDY    23  20  88 N23G30    30.40R WCI   7
AMARILLO       CLOUDY    20  14  77 N8        30.38S WCI  10
AUSTIN         LGT RAIN  35  35 100 NW18G33   30.29R WCI  24
BROWNSVILLE    CLOUDY    72  70  93 E5        29.87R
CORPUS CHRISTI LGT RAIN  46  44  93 N28G38    30.03R FOG     WCI  37
DALLAS FTW     SNOW      26  25  96 N21G35    30.32R VSB<1/4 WCI  12
DEL RIO        CLOUDY    39  34  82 NW15G22   30.27R WCI  31
EL PASO        PTCLDY    39  28  64 SE8       30.18R WCI  33
HOUSTON INT    LGT RAIN  43  40  89 NW16G26   30.06R WCI  35
LUBBOCK        CLOUDY    22  16  78 N9        30.40R WCI  12
SAN ANGELO     CLOUDY    27  22  81 N23       30.34R WCI  12
SAN ANTONIO    LGT RAIN  38  33  82 N20G31    30.15R WCI  28
WACO           FRZ RAIN  32  29  88 N21G31    30.28R WCI  20
WICHITA FALLS  NOT AVBL
$$
...OTHER LOCATIONS IN NEW MEXICO...

CITY           SKY/WX    TMP DP  RH WIND       PRES   REMARKS
ALAMAGORDO     MOCLDY    36  30  80 SW13      30.18R WCI  27
ALBUQUERQUE    CLEAR     36  15  42 NW16      30.23R WCI  26
CANNON AFB     FLURRIES  21  16  79 NE10      30.36R WCI  10
CLOVIS         CLOUDY    19  16  86 NE12      30.37S WCI   7
HOLLOMAN AFB   PTCLDY    37  29  72 S16       30.16R WCI  28
ROSWELL        CLOUDY    26  21  81 NE12      30.41R WCI  16
RUIDOSO        FOG       18  16  93 E7        30.27R VSB 1/2 WCI   8
SANTA FE       MOCLDY    22  16  78 SE12      30.24R WCI  10
TRUTH OR CONSE CLEAR     41  18  39 N9        30.17R WCI  35
TUCUMCARI      CLEAR     17  14  88 N5        30.38R WCI  10
$$


USA.gov is the U.S. government's official web portal to all federal, state and local government web resources and services.